This demonstration page uses our WeatherBlox Daily Observations layout. Learn more.

Left ArrowRight Arrow

Hourly Observations for June 12, 2020

Temp ( °F °C ) Dew Point ( °F °C ) Humidity (%) Winds ( mph kmh ) Pressure ( in mb ) Visibility ( mi km ) Precip ( " mm )
12:56 am 00:56 Clear 63 17 58 14.3 84 84 Calm 30.23 1024 10 16 0.00 0.00
1:56 am 01:56 Clear 61 15.9 56 13.4 85 85 Calm 30.24 1024 10 16 0.00 0.00
2:56 am 02:56 Clear 59 14.9 56 13.3 90 90 Calm 30.24 1024 10 16 0.00 0.00
3:56 am 03:56 Clear 59 15.1 55 12.9 87 87 Calm 30.24 1024 10 16 0.00 0.00
4:56 am 04:56 Clear 57 13.9 55 12.6 92 92 Calm 30.24 1024 9 14 0.00 0.00
5:56 am 05:56 Sunny 58 14.7 55 12.7 88 88 Calm 30.24 1024 10 16 0.00 0.00
6:56 am 06:56 Sunny 61 16.1 57 14.1 88 88 Calm 30.24 1024 10 16 0.00 0.00
7:56 am 07:56 Sunny 71 21.5 57 14.1 63 63 Calm 30.25 1024 10 16 0.00 0.00
8:56 am 08:56 Sunny 76 24.3 59 15.2 57 57 ENE 3 6 30.26 1025 10 16 0.00 0.00
9:56 am 09:56 Sunny 80 26.6 56 13.3 44 44 E 6 9 30.25 1024 10 16 0.00 0.00
10:56 am 10:56 Sunny 83 28.3 56 13.4 40 40 ESE 7 11 30.25 1025 10 16 0.00 0.00
11:56 am 11:56 Sunny 85 29.5 57 13.7 38 38 ESE 10 17 30.25 1025 10 16 0.00 0.00
12:56 pm 12:56 Sunny 86 30 57 14.1 38 38 ESE 7 11 30.24 1024 10 16 0.00 0.00
1:56 pm 13:56 Mostly Sunny 87 30.5 59 14.9 39 39 E 7 11 30.22 1024 10 16 0.00 0.00
2:56 pm 14:56 Sunny 88 31.1 55 12.9 33 33 ENE 7 11 30.19 1023 10 16 0.00 0.00
3:56 pm 15:56 Sunny 88 31.3 56 13.5 34 34 E 8 13 30.18 1022 10 16 0.00 0.00
4:56 pm 16:56 Sunny 88 31.1 56 13.4 34 34 ESE 8 13 30.16 1022 10 16 0.00 0.00
5:56 pm 17:56 Sunny 88 31.1 57 13.8 35 35 E 7 11 30.16 1021 10 16 0.00 0.00
6:56 pm 18:56 Sunny 87 30.4 56 13.6 36 36 E 7 11 30.15 1021 10 16 0.00 0.00
7:56 pm 19:56 Sunny 84 28.7 61 15.9 46 46 E 5 7 30.14 1021 10 16 0.00 0.00
8:56 pm 20:56 Sunny 77 25.2 60 15.5 55 55 ESE 6 9 30.14 1021 10 16 0.00 0.00
9:56 pm 21:56 Clear 70 21.1 59 15.2 69 69 E 5 7 30.14 1021 10 16 0.00 0.00
10:56 pm 22:56 Clear 66 19.1 61 15.9 82 82 Calm 30.15 1021 10 16 0.00 0.00
11:56 pm 23:56 Clear 66 19.1 59 15.2 78 78 Calm 30.15 1021 8 13 0.00 0.00

Powered by AerisWeather